Time,TemperatureF,DewpointF,PressureIn,WindDirection,WindDirectionDegrees,WindSpeedMPH,WindSpeedGustMPH,Humidity,HourlyPrecipIn,Conditions,Clouds,dailyrainin,SolarRadiationWatts/m^2,SoftwareType,DateUTC
2013-01-11 00:02:00,11.0,-2.0,-100.00,North,5,22.0,29.0,56,0.00,,,0.00,0.000000,,2013-01-11 07:02:00,
2013-01-11 00:22:00,10.0,-3.0,-100.00,North,9,21.0,39.0,54,0.00,,,0.00,0.000000,,2013-01-11 07:22:00,
2013-01-11 00:32:00,10.0,-3.0,-100.00,North,9,21.0,39.0,54,0.00,,,0.00,0.000000,,2013-01-11 07:32:00,
2013-01-11 00:42:00,10.0,-3.0,-100.00,North,9,21.0,39.0,54,0.00,,,0.00,0.000000,,2013-01-11 07:42:00,
2013-01-11 00:52:00,10.0,-3.0,-100.00,North,9,21.0,39.0,54,0.00,,,0.00,0.000000,,2013-01-11 07:52:00,
2013-01-11 01:02:00,10.0,-3.0,-100.00,North,9,21.0,39.0,54,0.00,,,0.00,0.000000,,2013-01-11 08:02:00,
2013-01-11 01:32:00,9.0,-3.0,-100.00,North,10,24.0,34.0,56,0.00,,,0.00,0.000000,,2013-01-11 08:32:00,
2013-01-11 01:42:00,9.0,-3.0,-100.00,North,10,24.0,34.0,56,0.00,,,0.00,0.000000,,2013-01-11 08:42:00,
2013-01-11 01:52:00,9.0,-3.0,-100.00,North,10,24.0,34.0,56,0.00,,,0.00,0.000000,,2013-01-11 08:52:00,
2013-01-11 02:02:00,9.0,-3.0,-100.00,North,10,24.0,34.0,56,0.00,,,0.00,0.000000,,2013-01-11 09:02:00,
2013-01-11 02:32:00,8.0,-5.0,-100.00,North,7,23.0,38.0,54,0.00,,,0.00,0.000000,,2013-01-11 09:32:00,
2013-01-11 02:42:00,8.0,-5.0,-100.00,North,7,23.0,38.0,54,0.00,,,0.00,0.000000,,2013-01-11 09:42:00,
2013-01-11 02:52:00,8.0,-5.0,-100.00,North,7,23.0,38.0,54,0.00,,,0.00,0.000000,,2013-01-11 09:52:00,
2013-01-11 03:02:00,8.0,-5.0,-100.00,North,7,23.0,38.0,54,0.00,,,0.00,0.000000,,2013-01-11 10:02:00,
2013-01-11 03:32:00,8.0,-6.0,-100.00,SE,128,22.0,36.0,53,0.00,,,0.00,0.000000,,2013-01-11 10:32:00,
2013-01-11 03:42:00,8.0,-6.0,-100.00,SE,128,22.0,36.0,53,0.00,,,0.00,0.000000,,2013-01-11 10:42:00,
2013-01-11 03:52:00,8.0,-6.0,-100.00,SE,128,22.0,36.0,53,0.00,,,0.00,0.000000,,2013-01-11 10:52:00,
2013-01-11 04:02:00,8.0,-6.0,-100.00,SE,128,22.0,36.0,53,0.00,,,0.00,0.000000,,2013-01-11 11:02:00,
2013-01-11 04:22:00,7.0,-6.0,-100.00,North,6,21.0,34.0,54,0.00,,,0.00,0.000000,,2013-01-11 11:22:00,
2013-01-11 04:33:00,7.0,-6.0,-100.00,North,6,21.0,34.0,54,0.00,,,0.00,0.000000,,2013-01-11 11:33:00,
2013-01-11 04:43:00,7.0,-6.0,-100.00,North,6,21.0,34.0,54,0.00,,,0.00,0.000000,,2013-01-11 11:43:00,
2013-01-11 04:53:00,7.0,-6.0,-100.00,North,6,21.0,34.0,54,0.00,,,0.00,0.000000,,2013-01-11 11:53:00,
2013-01-11 05:02:00,7.0,-6.0,-100.00,North,6,21.0,34.0,54,0.00,,,0.00,0.000000,,2013-01-11 12:02:00,
2013-01-11 05:23:00,7.0,-7.0,-100.00,North,11,22.0,34.0,51,0.00,,,-99.99,0.000000,,2013-01-11 12:23:00,
2013-01-11 05:33:00,7.0,-7.0,-100.00,North,11,22.0,34.0,51,0.00,,,-99.99,0.000000,,2013-01-11 12:33:00,
2013-01-11 05:43:00,7.0,-7.0,-100.00,North,11,22.0,34.0,51,0.00,,,-99.99,0.000000,,2013-01-11 12:43:00,
2013-01-11 05:53:00,7.0,-7.0,-100.00,North,11,22.0,34.0,51,0.00,,,-99.99,0.000000,,2013-01-11 12:53:00,
2013-01-11 06:02:00,7.0,-7.0,-100.00,North,11,22.0,34.0,51,0.00,,,-99.99,0.000000,,2013-01-11 13:02:00,
2013-01-11 06:22:00,7.0,-8.0,-100.00,NNE,17,21.0,34.0,49,0.00,,,-99.99,0.000000,,2013-01-11 13:22:00,
2013-01-11 06:33:00,7.0,-8.0,-100.00,NNE,17,21.0,34.0,49,0.00,,,-99.99,0.000000,,2013-01-11 13:33:00,
2013-01-11 06:43:00,7.0,-8.0,-100.00,NNE,17,21.0,34.0,49,0.00,,,-99.99,0.000000,,2013-01-11 13:43:00,
2013-01-11 06:52:00,7.0,-8.0,-100.00,NNE,17,21.0,34.0,49,0.00,,,-99.99,0.000000,,2013-01-11 13:52:00,
2013-01-11 07:02:00,7.0,-8.0,-100.00,NNE,17,21.0,34.0,49,0.00,,,-99.99,0.000000,,2013-01-11 14:02:00,
2013-01-11 07:03:00,6.0,-8.0,-100.00,NNE,13,20.0,32.0,51,0.00,,,0.00,0.000000,,2013-01-11 14:03:00,
2013-01-11 07:33:00,6.0,-8.0,-100.00,NNE,13,20.0,32.0,51,0.00,,,0.00,0.000000,,2013-01-11 14:33:00,
2013-01-11 07:43:00,6.0,-8.0,-100.00,NNE,13,20.0,32.0,51,0.00,,,0.00,0.000000,,2013-01-11 14:43:00,
2013-01-11 07:53:00,6.0,-8.0,-100.00,NNE,13,20.0,32.0,51,0.00,,,0.00,0.000000,,2013-01-11 14:53:00,
2013-01-11 08:23:00,6.0,-7.0,-100.00,NNE,17,17.0,32.0,53,0.00,,,0.00,0.000000,,2013-01-11 15:23:00,
2013-01-11 08:33:00,6.0,-7.0,-100.00,NNE,17,17.0,32.0,53,0.00,,,0.00,0.000000,,2013-01-11 15:33:00,
2013-01-11 08:43:00,6.0,-7.0,-100.00,NNE,17,17.0,32.0,53,0.00,,,0.00,0.000000,,2013-01-11 15:43:00,
2013-01-11 08:53:00,6.0,-7.0,-100.00,NNE,17,17.0,32.0,53,0.00,,,0.00,0.000000,,2013-01-11 15:53:00,
2013-01-11 09:02:00,6.0,-7.0,-100.00,NNE,17,17.0,32.0,53,0.00,,,0.00,0.000000,,2013-01-11 16:02:00,
2013-01-11 09:33:00,6.0,-7.0,-100.00,North,11,17.0,29.0,53,0.00,,,0.00,14.000000,,2013-01-11 16:33:00,
2013-01-11 09:43:00,6.0,-7.0,-100.00,North,11,17.0,29.0,53,0.00,,,0.00,14.000000,,2013-01-11 16:43:00,
2013-01-11 09:53:00,6.0,-7.0,-100.00,North,11,17.0,29.0,53,0.00,,,0.00,14.000000,,2013-01-11 16:53:00,
2013-01-11 10:02:00,6.0,-7.0,-100.00,North,11,17.0,29.0,53,0.00,,,0.00,14.000000,,2013-01-11 17:02:00,
2013-01-11 10:33:00,7.0,-6.0,-100.00,North,2,15.0,27.0,55,0.00,,,0.00,64.000000,,2013-01-11 17:33:00,
2013-01-11 10:43:00,7.0,-6.0,-100.00,North,2,15.0,27.0,55,0.00,,,0.00,64.000000,,2013-01-11 17:43:00,
2013-01-11 10:53:00,7.0,-6.0,-100.00,North,2,15.0,27.0,55,0.00,,,0.00,64.000000,,2013-01-11 17:53:00,
2013-01-11 11:02:00,7.0,-6.0,-100.00,North,2,15.0,27.0,55,0.00,,,0.00,64.000000,,2013-01-11 18:02:00,
2013-01-11 11:33:00,8.0,-7.0,-100.00,North,9,19.0,26.0,50,0.00,,,0.00,124.000000,,2013-01-11 18:33:00,
2013-01-11 11:43:00,8.0,-7.0,-100.00,North,9,19.0,26.0,50,0.00,,,0.00,124.000000,,2013-01-11 18:43:00,
2013-01-11 11:53:00,8.0,-7.0,-100.00,North,9,19.0,26.0,50,0.00,,,0.00,124.000000,,2013-01-11 18:53:00,
2013-01-11 12:02:00,8.0,-7.0,-100.00,North,9,19.0,26.0,50,0.00,,,0.00,124.000000,,2013-01-11 19:02:00,
2013-01-11 12:23:00,9.0,-8.0,-100.00,NNE,13,15.0,28.0,45,0.00,,,0.00,187.000000,,2013-01-11 19:23:00,
2013-01-11 12:33:00,9.0,-8.0,-100.00,NNE,13,15.0,28.0,45,0.00,,,0.00,187.000000,,2013-01-11 19:33:00,
2013-01-11 12:43:00,9.0,-8.0,-100.00,NNE,13,15.0,28.0,45,0.00,,,0.00,187.000000,,2013-01-11 19:43:00,
2013-01-11 12:53:00,9.0,-8.0,-100.00,NNE,13,15.0,28.0,45,0.00,,,0.00,187.000000,,2013-01-11 19:53:00,
2013-01-11 13:02:00,9.0,-8.0,-100.00,NNE,13,15.0,28.0,45,0.00,,,0.00,187.000000,,2013-01-11 20:02:00,
2013-01-11 13:33:00,10.0,-9.0,-100.00,North,9,15.0,27.0,40,0.00,,,0.00,237.000000,,2013-01-11 20:33:00,
2013-01-11 14:02:00,10.0,-9.0,-100.00,North,9,15.0,27.0,40,0.00,,,0.00,237.000000,,2013-01-11 21:02:00,
2013-01-11 14:33:00,10.0,-6.0,-100.00,North,7,15.0,26.0,47,0.00,,,0.00,202.000000,,2013-01-11 21:33:00,
2013-01-11 14:43:00,10.0,-6.0,-100.00,North,7,15.0,26.0,47,0.00,,,0.00,202.000000,,2013-01-11 21:43:00,
2013-01-11 14:53:00,10.0,-6.0,-100.00,North,7,15.0,26.0,47,0.00,,,0.00,202.000000,,2013-01-11 21:53:00,
2013-01-11 15:02:00,10.0,-6.0,-100.00,North,7,15.0,26.0,47,0.00,,,0.00,202.000000,,2013-01-11 22:02:00,
2013-01-11 15:23:00,9.0,-8.0,-100.00,NNE,16,17.0,25.0,45,0.00,,,0.00,180.000000,,2013-01-11 22:23:00,
2013-01-11 15:33:00,9.0,-8.0,-100.00,NNE,16,17.0,25.0,45,0.00,,,0.00,180.000000,,2013-01-11 22:33:00,
2013-01-11 15:42:00,9.0,-8.0,-100.00,NNE,16,17.0,25.0,45,0.00,,,0.00,180.000000,,2013-01-11 22:42:00,
2013-01-11 15:53:00,9.0,-8.0,-100.00,NNE,16,17.0,25.0,45,0.00,,,0.00,180.000000,,2013-01-11 22:53:00,
2013-01-11 16:02:00,9.0,-8.0,-100.00,NNE,16,17.0,25.0,45,0.00,,,0.00,180.000000,,2013-01-11 23:02:00,
2013-01-11 16:23:00,9.0,-7.0,-100.00,NNE,14,15.0,26.0,47,0.00,,,0.00,124.000000,,2013-01-11 23:23:00,
2013-01-11 16:33:00,9.0,-7.0,-100.00,NNE,14,15.0,26.0,47,0.00,,,0.00,124.000000,,2013-01-11 23:33:00,
2013-01-11 16:43:00,9.0,-7.0,-100.00,NNE,14,15.0,26.0,47,0.00,,,0.00,124.000000,,2013-01-11 23:43:00,
2013-01-11 16:53:00,9.0,-7.0,-100.00,NNE,14,15.0,26.0,47,0.00,,,0.00,124.000000,,2013-01-11 23:53:00,
2013-01-11 17:02:00,9.0,-7.0,-100.00,NNE,14,15.0,26.0,47,0.00,,,0.00,124.000000,,2013-01-12 00:02:00,
2013-01-11 17:33:00,8.0,-8.0,-100.00,North,9,14.0,24.0,48,0.00,,,0.00,36.000000,,2013-01-12 00:33:00,
2013-01-11 17:43:00,8.0,-8.0,-100.00,North,9,14.0,24.0,48,0.00,,,0.00,36.000000,,2013-01-12 00:43:00,
2013-01-11 17:53:00,8.0,-8.0,-100.00,North,9,14.0,24.0,48,0.00,,,0.00,36.000000,,2013-01-12 00:53:00,
2013-01-11 18:02:00,8.0,-8.0,-100.00,North,9,14.0,24.0,48,0.00,,,0.00,36.000000,,2013-01-12 01:02:00,
2013-01-11 18:33:00,8.0,-7.0,-100.00,NNE,14,10.0,24.0,49,0.00,,,0.00,0.000000,,2013-01-12 01:33:00,
2013-01-11 18:43:00,8.0,-7.0,-100.00,NNE,14,10.0,24.0,49,0.00,,,0.00,0.000000,,2013-01-12 01:43:00,
2013-01-11 18:52:00,8.0,-7.0,-100.00,NNE,14,10.0,24.0,49,0.00,,,0.00,0.000000,,2013-01-12 01:52:00,
2013-01-11 19:02:00,8.0,-7.0,-100.00,NNE,14,10.0,24.0,49,0.00,,,0.00,0.000000,,2013-01-12 02:02:00,
2013-01-11 19:33:00,8.0,-7.0,-100.00,NNE,12,13.0,20.0,50,0.00,,,0.00,0.000000,,2013-01-12 02:33:00,
2013-01-11 19:43:00,8.0,-7.0,-100.00,NNE,12,13.0,20.0,50,0.00,,,0.00,0.000000,,2013-01-12 02:43:00,
2013-01-11 19:53:00,8.0,-7.0,-100.00,NNE,12,13.0,20.0,50,0.00,,,0.00,0.000000,,2013-01-12 02:53:00,
2013-01-11 20:02:00,8.0,-7.0,-100.00,NNE,12,13.0,20.0,50,0.00,,,0.00,0.000000,,2013-01-12 03:02:00,
2013-01-11 20:33:00,9.0,-6.0,-100.00,NW,313,10.0,21.0,50,0.00,,,0.00,0.000000,,2013-01-12 03:33:00,
2013-01-11 20:43:00,9.0,-6.0,-100.00,NW,313,10.0,21.0,50,0.00,,,0.00,0.000000,,2013-01-12 03:43:00,
2013-01-11 20:53:00,9.0,-6.0,-100.00,NW,313,10.0,21.0,50,0.00,,,0.00,0.000000,,2013-01-12 03:53:00,
2013-01-11 21:02:00,9.0,-6.0,-100.00,NW,313,10.0,21.0,50,0.00,,,0.00,0.000000,,2013-01-12 04:02:00,
2013-01-11 21:03:00,7.0,-5.0,-100.00,NNE,28,7.0,18.0,57,0.00,,,0.00,0.000000,,2013-01-12 04:03:00,
2013-01-11 21:22:00,7.0,-5.0,-100.00,NNE,28,7.0,18.0,57,0.00,,,0.00,0.000000,,2013-01-12 04:22:00,
2013-01-11 21:32:00,7.0,-5.0,-100.00,NNE,28,7.0,18.0,57,0.00,,,0.00,0.000000,,2013-01-12 04:32:00,
2013-01-11 21:43:00,7.0,-5.0,-100.00,NNE,28,7.0,18.0,57,0.00,,,0.00,0.000000,,2013-01-12 04:43:00,
2013-01-11 21:52:00,7.0,-5.0,-100.00,NNE,28,7.0,18.0,57,0.00,,,0.00,0.000000,,2013-01-12 04:52:00,
2013-01-11 22:32:00,7.0,-5.0,-100.00,NE,47,2.0,14.0,58,0.00,,,0.00,0.000000,,2013-01-12 05:32:00,
2013-01-11 22:42:00,7.0,-5.0,-100.00,NE,47,2.0,14.0,58,0.00,,,0.00,0.000000,,2013-01-12 05:42:00,
2013-01-11 22:52:00,7.0,-5.0,-100.00,NE,47,2.0,14.0,58,0.00,,,0.00,0.000000,,2013-01-12 05:52:00,
2013-01-11 23:02:00,7.0,-5.0,-100.00,NE,47,2.0,14.0,58,0.00,,,0.00,0.000000,,2013-01-12 06:02:00,
2013-01-11 23:33:00,5.0,-4.0,-100.00,SE,126,2.0,9.0,67,0.00,,,0.00,0.000000,,2013-01-12 06:33:00,
2013-01-11 23:43:00,5.0,-4.0,-100.00,SE,126,2.0,9.0,67,0.00,,,0.00,0.000000,,2013-01-12 06:43:00,
2013-01-11 23:52:00,5.0,-4.0,-100.00,SE,126,2.0,9.0,67,0.00,,,0.00,0.000000,,2013-01-12 06:52:00,